Find Starlink 5876

NORAD ID: 56321 Int'l Des: 2023-058 Owner: SPXS Country: US Constellation: starlink operational
LEOCIRCULARRETROGRADESSO

Live Position

Loading 3D Globe...

About Starlink 5876

Description loading...

Upcoming Passes

Passes for default location (London). Set your location on the main map for personalized predictions.

Altitude History

Loading altitude history...

Two-Line Element Set

1 56321U 23058E 26110.25302303 -.00097860 00000-0 -68825-2 0 9996
2 56321 97.5949 112.2317 0001004 83.3115 276.8227 15.05590661164109
Epoch: Apr 20, 2026 • Age: 16 hours

Current Status

Altitude 557.5 km
Velocity 7.58 km/s
Sub-Earth Point -18.65°S, 62.66°W
Launch Date Apr 27, 2023
Age 2.9 years
Type internet

Technical Details

Classification Payload
Mass 300.00 kg
Dry Mass 260.00 kg
Total Mass 300.00 kg
Length 0.20 m
Diameter 2.80 m
Span 9.00 m
Shape Box + pan
Manufacturer SPXS
Bus Type Starlink
Phase Status In Orbit
Owner/State SPXS/US

Most Searched